Location: Newark
(25.0000°N, 73.5000°E)
Time: 15:29:12
(UTC+00:00)

Courier 1B Rocket - All Passes

Search period start: 27 February 2021 00:00
Search period end: 09 March 2021 00:00
Orbit: 920 x 1202 km, 28.3° (Epoch: 26 February)

Date Brightness Start Highest point End Pass type
(mag) Time Alt. Az. Time Alt. Az. Time Alt. Az.
27 Feb - 09:28:39 10° SW 09:35:14 37° SSE 09:42:09 10° E daylight
27 Feb - 11:21:12 10° WSW 11:28:47 83° SSE 11:36:40 10° ENE daylight
27 Feb - 13:15:10 10° W 13:22:56 70° N 13:30:45 10° E visible
27 Feb - 15:09:20 10° WNW 15:17:14 81° NNE 15:24:52 10° E visible
27 Feb - 17:03:32 10° W 17:11:03 54° SSW 17:18:10 10° SE visible
27 Feb - 18:59:23 10° WSW 19:04:13 18° SSW 19:08:53 10° S night (unlit)
28 Feb - 08:28:31 10° SSW 08:34:10 25° SSE 08:40:06 10° E daylight
28 Feb - 10:20:10 10° WSW 10:27:29 67° SSE 10:35:12 10° ENE daylight
28 Feb - 12:13:47 10° W 12:21:27 75° N 12:29:19 10° ENE daylight
28 Feb - 14:07:55 10° WNW 14:15:46 74° N 14:23:32 10° E visible
28 Feb - 16:02:00 10° WNW 16:09:48 71° SSW 16:17:18 10° ESE visible
28 Feb - 17:56:55 10° W 18:03:11 28° SSW 18:09:11 10° SSE night (unlit)
01 Mar - 07:29:05 10° S 07:33:11 16° SSE 07:37:27 10° ESE daylight
01 Mar - 09:19:23 10° SW 09:26:17 51° SSE 09:33:37 10° E daylight
01 Mar - 11:12:29 10° W 11:20:00 83° NNW 11:27:52 10° ENE daylight
01 Mar - 13:06:32 10° W 13:14:16 70° N 13:22:05 10° E daylight
01 Mar - 15:00:34 10° WNW 15:08:28 86° SSW 15:16:11 10° ESE visible
01 Mar - 16:54:57 10° W 17:02:05 40° SSW 17:08:56 10° SE visible
01 Mar - 18:53:01 10° SW 18:55:13 11° SW 18:57:25 10° SSW night (unlit)
02 Mar - 08:18:55 10° SW 08:25:12 36° SSE 08:31:52 10° E daylight
02 Mar - 10:11:22 10° WSW 10:18:39 84° SSE 10:26:25 10° ENE daylight
02 Mar - 12:05:11 10° W 12:12:46 70° N 12:20:36 10° E daylight
02 Mar - 13:59:12 10° WNW 14:07:02 82° NNE 14:14:52 10° E visible
02 Mar - 15:53:18 10° W 16:00:54 54° SSW 16:08:17 10° SE visible
02 Mar - 17:49:06 10° WSW 17:54:11 19° SSW 17:59:06 10° S visible
03 Mar - 07:18:52 10° SSW 07:24:12 25° SSE 07:29:50 10° E daylight
03 Mar - 09:10:25 10° WSW 09:17:24 67° SSE 09:24:55 10° ENE daylight
03 Mar - 11:03:54 10° W 11:11:18 74° N 11:19:06 10° ENE daylight
03 Mar - 12:57:53 10° WNW 13:05:34 74° N 13:13:26 10° E daylight
03 Mar - 14:51:50 10° WNW 14:59:37 70° SSW 15:07:19 10° ESE visible
03 Mar - 16:46:40 10° W 16:53:05 28° SSW 16:59:20 10° SSE visible
04 Mar - 06:19:31 10° S 06:23:17 16° SSE 06:27:11 10° ESE daylight
04 Mar - 08:09:42 10° SW 08:16:17 50° SSE 08:23:21 10° E daylight
04 Mar - 10:02:43 10° W 10:09:55 82° NNW 10:17:36 10° ENE daylight
04 Mar - 11:56:36 10° W 12:04:06 70° N 12:11:54 10° E daylight
04 Mar - 13:50:29 10° WNW 13:58:15 85° SSW 14:06:07 10° ESE visible
04 Mar - 15:44:46 10° W 15:51:55 40° SSW 15:58:59 10° SE visible
04 Mar - 17:42:37 10° SW 17:45:10 12° SW 17:47:42 10° SSW visible
05 Mar - 07:09:17 10° SW 07:15:16 35° SSE 07:21:39 10° E daylight
05 Mar - 09:01:40 10° WSW 09:08:37 84° SSE 09:16:08 10° ENE daylight
05 Mar - 10:55:22 10° W 11:02:38 69° N 11:10:22 10° E daylight
05 Mar - 12:49:12 10° WNW 12:56:50 82° N 13:04:44 10° E daylight
05 Mar - 14:43:10 10° W 14:50:42 53° SSW 14:58:14 10° SE visible
05 Mar - 16:38:53 10° WSW 16:44:04 19° SSW 16:49:10 10° S visible
06 Mar - 06:09:16 10° SSW 06:14:20 24° SSE 06:19:39 10° E daylight
06 Mar - 08:00:47 10° WSW 08:07:27 67° SSE 08:14:39 10° ENE daylight
06 Mar - 09:54:10 10° W 10:01:14 73° N 10:08:49 10° ENE daylight
06 Mar - 11:48:00 10° WNW 11:55:25 74° N 12:03:13 10° E daylight
06 Mar - 13:41:47 10° WNW 13:49:24 69° SSW 13:57:12 10° ESE visible
06 Mar - 15:36:31 10° W 15:42:56 28° SSW 15:49:18 10° SSE visible
07 Mar - 05:09:58 10° S 05:13:28 15° SSE 05:17:04 10° ESE daylight
07 Mar - 07:00:07 10° SW 07:06:24 50° SSE 07:13:08 10° E daylight
07 Mar - 08:53:04 10° W 08:59:55 81° NNW 09:07:20 10° ENE daylight
07 Mar - 10:46:49 10° W 10:53:59 69° N 11:01:39 10° E daylight
07 Mar - 12:40:32 10° WNW 12:48:04 84° SSW 12:55:56 10° ESE daylight
07 Mar - 14:34:41 10° W 14:41:44 39° SSW 14:48:52 10° SE visible
07 Mar - 16:32:27 10° SW 16:35:04 12° SSW 16:37:41 10° SSW visible
08 Mar - 05:59:43 10° SW 06:05:27 35° SSE 06:11:30 10° E daylight
08 Mar - 07:52:04 10° WSW 07:58:42 85° SSE 08:05:54 10° ENE daylight
08 Mar - 09:45:40 10° W 09:52:36 68° N 10:00:05 10° E daylight
08 Mar - 11:39:22 10° WNW 11:46:42 83° NNE 11:54:29 10° E daylight
08 Mar - 13:33:11 10° W 13:40:31 52° SSW 13:48:04 10° SE visible
08 Mar - 15:28:48 10° WSW 15:33:55 19° SSW 15:39:03 10° S visible
